Regional Weather Roundup
Issued by NWS

Home | Current Version | Previous Version | Text Only | Print | Product List | Glossary On
Versions: 1 2 3 4 5 6 7 8 9 10 11 12 13 14 15 16 17 18 19 20 21 22 23 24 25 26 27 28 29 30 31 32 33 34 35 36 37 38 39 40 41 42 43 44 45 46 47 48 49 50
000
ASUS43 KLOT 161203
RWRIL

ILLINOIS REGIONAL WEATHER ROUNDUP
NATIONAL WEATHER SERVICE CHICAGO/ROMEOVILLE IL
700 AM CDT WED AUG 16 2017

NOTE: "FAIR" INDICATES FEW OR NO CLOUDS BELOW 12,000 FEET WITH NO
SIGNIFICANT WEATHER AND/OR OBSTRUCTIONS TO VISIBILITY.

* THESE STATIONS ARE NOT UNDER NWS QUALITY CONTROL. THEY ALSO MAY NOT
  REPORT WEATHER SUCH AS PRECIPITATION OR FOG.

ILZ001-002-007-009-015-016-024-161300-
NORTHWEST ILLINOIS

CITY           SKY/WX    TMP DP  RH WIND       PRES   REMARKS
MOLINE         CLEAR     67  64  90 E9        29.95R FOG
6HR MIN TEMP:  67; 6HR MAX TEMP:  72;

STERLING*      CLOUDY    65  63  93 E7        29.98S FOG
SAVANNA*       CLOUDY    64  62  92 E5        29.98S
$$

ILZ003-004-008-010-011-017-018-161300-
NORTH CENTRAL ILLINOIS

CITY           SKY/WX    TMP DP  RH WIND       PRES   REMARKS
ROCKFORD       PTCLDY    67  61  81 E7        30.00F
6HR MIN TEMP:  65; 6HR MAX TEMP:  67;

FREEPORT*      CLOUDY    60  60  97 CALM      30.01S
ROCHELLE*      CLEAR     65  63  94 E5        30.01S
PERU*          CLEAR     64  62  94 E7        29.99S FOG
$$

ILZ005-006-012>014-019>023-161300-
NORTHEAST ILLINOIS

CITY           SKY/WX    TMP DP  RH WIND       PRES   REMARKS
CHICAGO-OHARE  PTCLDY    69  64  84 NE6       30.01S
6HR MIN TEMP:  67; 6HR MAX TEMP:  69;

CHICAGO-MIDWAY PTCLDY    72  67  84 E7        30.01R
6HR MIN TEMP:  70; 6HR MAX TEMP:  72;

AURORA         CLEAR     65  64  97 NE5       30.01R
6HR MIN TEMP:  61; 6HR MAX TEMP:  65;

LANSING*       CLEAR     67  60  79 CALM      30.01S
JOLIET*        PTCLDY    69  67  92 E3        30.00S
WAUKEGAN       CLEAR     63  62  97 CALM      30.02R
6HR MIN TEMP:  59; 6HR MAX TEMP:  63;

DUPAGE AIRPORT CLEAR     65  64  97 NE5       30.00S
6HR MIN TEMP:  60; 6HR MAX TEMP:  65;

KANKAKEE*      CLEAR     64  64  97 CALM      30.01R
WHEELING       PTCLDY    66  65  96 CALM      30.03R
6HR MIN TEMP:  62; 6HR MAX TEMP:  66;

MORRIS*        PTCLDY    64  62  95 NE3       29.99S FOG
NORTHERLY ISL    N/A     72  66  81 NE6         N/A
$$

LMZ740>746-161300-
SOUTHERN LAKE MICHIGAN

STATION/POSITION SKY/WX   TEMP    WIND        PRES    VSBY  WAVE
                          AIR SEA DIR/SP/G                  HT/PER
                          (F)     (DEG/KT/KT) (MB)    (MI)  (FT/S)
SOUTHERN BUOY              70 71   60/  4/  4 1016.4          1/ 4
WILMETTE HARBOR            72 72   60/  6/  8   N/A           2/ 5
HARRISON CRIB              72      70/  8/  8   N/A
CALUMET HARBOR             72      60/  5/  7 1015.5S
BURNS HARBOR               69      80/  2/  4 1016.6R
MICHIGAN CITY              66      80/  4/  5   N/A
MICHIGAN CITY 6N           70 74  100/  6/  8   N/A           2/ 5
ST. JOSEPH                 69 73  150/  4/  6 1016.5R         1/ 4
$$

ILZ025>027-034>036-040-047-049-050-058-095>099-161300-
WEST-CENTRAL ILLINOIS

CITY           SKY/WX    TMP DP  RH WIND       PRES   REMARKS
QUINCY         CLEAR     70  69  97 E8        29.90S FOG
GALESBURG*     CLEAR     67  67  98 E5        29.95F FOG
MACOMB*        PTCLDY    67  67 100 E3        29.95F FOG
JACKSONVILLE*  CLOUDY    68  67  98 E3        29.93F FOG
PITTSFIELD*    CLOUDY    71  71  99 E6        29.93S FOG
$$

ILZ028>032-037-038-041>044-048-051>054-059>061-161300-
CENTRAL ILLINOIS

CITY           SKY/WX    TMP DP  RH WIND       PRES   REMARKS
PONTIAC        CLEAR     65  65  98 CALM      30.00R FOG
BLOOMINGTON    CLEAR     67  66  97 CALM      30.00R
DECATUR        CLEAR     67  66  97 E3        29.98R FOG
PEORIA         CLEAR     70  68  93 E7        29.96S
6HR MIN TEMP:  69; 6HR MAX TEMP:  75;

LACON*         CLEAR     65  65  97 CALM      29.97S FOG
LINCOLN*       CLEAR     67  67 100 CALM      29.97R FOG
SPRINGFIELD    CLEAR     72  71  97 E3        29.96R
6HR MIN TEMP:  70; 6HR MAX TEMP:  74;

TAYLORVILLE    CLEAR     70  70 100 SE5       29.97R FOG
6HR MIN TEMP:  67; 6HR MAX TEMP:  71;

$$

ILZ033-039-045-046-055>057-062-063-161300-
EAST-CENTRAL ILLINOIS

CITY           SKY/WX    TMP DP  RH WIND       PRES   REMARKS
CHAMPAIGN      CLEAR     67  65  93 CALM      30.00R FOG
RANTOUL*       CLEAR     69  68  97 SE5       30.00R FOG
MATTOON        CLEAR     69  69 100 S5        29.99R FOG
PARIS*         FOG       64  64 100 CALM      30.01R VSB 3/4
$$

ILZ079-100>102-161300-
SOUTHWEST ILLINOIS

CITY           SKY/WX    TMP DP  RH WIND       PRES   REMARKS
ALTON          CLOUDY    72  72 100 E6        29.95S FOG
BELLEVILLE     CLOUDY    73  72  94 CALM      29.96S
CAHOKIA*       MOCLDY    75  72  90 SE6       29.94S
SPARTA*        CLOUDY    73  72  99 SE7       29.96S
$$

ILZ064>066-069>071-074>076-080>082-084>086-088>090-092>094-161300-
SOUTH-CENTRAL ILLINOIS

CITY           SKY/WX    TMP DP  RH WIND       PRES   REMARKS
CARBONDALE     CLOUDY    72  72 100 E5        29.98R FOG
6HR MIN TEMP:  69; 6HR MAX TEMP:  73; 6HR PCP:  0.01;

CAIRO*         MOCLDY    73  73  99 SE5       29.97S
EFFINGHAM*     PTCLDY    70  70 100 E5        29.99S FOG
MARION         MOCLDY    73  73 100 N7        30.00R FOG
MT. VERNON     CLOUDY    71  70  96 CALM      29.98R FOG
CENTRALIA*     LGT RAIN  72  72 100 CALM      29.98R
SALEM*         CLOUDY    73  71  93 SE5       29.98S FOG
METROPOLIS*    PTCLDY    72  71  99 CALM      29.99S FOG
$$

ILZ067-068-072-073-078-083-087-091-161300-
SOUTHEAST ILLINOIS

CITY           SKY/WX    TMP DP  RH WIND       PRES   REMARKS
LAWRENCEVILLE  CLOUDY    71  70  96 CALM      30.00R FOG
FLORA*         CLOUDY    69  68  96 CALM      29.99S FOG
FAIRFIELD*     CLOUDY    69  69 100 CALM      29.97S FOG
HARRISBURG*    CLOUDY    70  70 100 CALM      29.99S FOG
ROBINSON*      PTCLDY    64  64 100 CALM      30.01S FOG
CARMI*         FOG       68  68 100 CALM      29.99R VSB<1/4
$$

ABBREVIATIONS USED IN REMARKS
   TC - TEMPERATURE IN CELSIUS
  WCI - WIND CHILL INDEX
   HX - HEAT INDEX
  VSB - VISIBILITY
$$





USA.gov is the U.S. government's official web portal to all federal, state and local government web resources and services.